TimeAKST,TemperatureF,Dew PointF,Humidity,Sea Level PressureIn,VisibilityMPH,Wind Direction,Wind SpeedMPH,Gust SpeedMPH,PrecipitationIn,Events,Conditions,WindDirDegrees,DateUTC
12:01 AM,15.8,-9999,N/A,29.32,2.5,NE,5.8,-,0.00,Snow,Light Snow,50,2014-01-22 09:01:00
12:40 AM,17.6,-9999,N/A,29.34,3.0,North,5.8,-,0.00,Snow,Light Snow,10,2014-01-22 09:40:00
12:53 AM,17.6,-9999,N/A,29.34,3.0,NE,5.8,-,0.00,Snow,Light Snow,40,2014-01-22 09:53:00
12:58 AM,17.1,-9999,N/A,29.35,3.0,NE,4.6,-,0.00,Snow,Light Snow,40,2014-01-22 09:58:00
1:10 AM,17.6,-9999,N/A,29.35,3.0,NNE,4.6,-,0.00,Snow,Light Snow,30,2014-01-22 10:10:00
1:14 AM,17.6,-9999,N/A,29.35,2.5,Calm,Calm,-,0.00,Snow,Light Snow,0,2014-01-22 10:14:00
1:28 AM,17.6,-9999,N/A,29.36,1.8,NNE,4.6,-,0.00,Snow,Light Snow,20,2014-01-22 10:28:00
1:43 AM,17.6,-9999,N/A,29.37,1.0,NNE,4.6,-,0.01,Snow,Light Snow,20,2014-01-22 10:43:00
1:47 AM,17.6,-9999,N/A,29.37,1.2,NNE,4.6,-,0.01,Snow,Light Snow,20,2014-01-22 10:47:00
1:56 AM,17.6,-9999,N/A,29.37,2.5,NNE,5.8,-,0.01,Snow,Light Snow,20,2014-01-22 10:56:00
1:58 AM,17.1,-9999,N/A,29.38,2.5,NNE,5.8,-,0.01,Snow,Light Snow,20,2014-01-22 10:58:00
2:02 AM,17.6,-9999,N/A,29.37,3.0,North,5.8,-,0.00,Snow,Light Snow,10,2014-01-22 11:02:00
2:31 AM,17.6,-9999,N/A,29.38,3.0,North,8.1,-,0.00,,Overcast,360,2014-01-22 11:31:00
2:58 AM,16.0,-9999,N/A,29.40,2.5,North,4.6,-,0.00,,Overcast,350,2014-01-22 11:58:00
3:10 AM,17.6,-9999,N/A,29.40,1.8,North,4.6,-,0.00,,Overcast,360,2014-01-22 12:10:00
3:30 AM,17.6,-9999,N/A,29.41,2.0,Calm,Calm,-,0.00,,Overcast,0,2014-01-22 12:30:00
3:39 AM,17.6,-9999,N/A,29.41,4.0,Calm,Calm,-,0.00,,Overcast,0,2014-01-22 12:39:00
3:58 AM,18.0,-9999,N/A,29.44,6.0,West,5.8,-,0.00,Snow,Light Snow,270,2014-01-22 12:58:00
4:10 AM,17.6,-9999,N/A,29.44,7.0,SW,8.1,-,0.00,,Overcast,220,2014-01-22 13:10:00
4:42 AM,24.8,-9999,N/A,29.45,2.5,SSW,17.3,-,0.00,,Overcast,200,2014-01-22 13:42:00
4:46 AM,24.8,-9999,N/A,29.45,2.0,South,18.4,-,0.00,Snow,Light Snow,190,2014-01-22 13:46:00
4:58 AM,25.0,-9999,N/A,29.46,3.0,South,21.9,-,0.00,Snow,Light Snow,190,2014-01-22 13:58:00
5:19 AM,24.8,-9999,N/A,29.49,4.0,South,20.7,28.8,0.00,,Haze,190,2014-01-22 14:19:00
5:44 AM,24.8,-9999,N/A,29.50,9.0,SSW,21.9,-,0.00,,Overcast,200,2014-01-22 14:44:00
5:58 AM,25.0,-9999,N/A,29.52,10.0,SSW,21.9,-,0.00,,Overcast,200,2014-01-22 14:58:00
6:20 AM,24.8,-9999,N/A,29.52,10.0,SSW,19.6,-,N/A,,Overcast,200,2014-01-22 15:20:00
6:28 AM,24.8,-9999,N/A,29.53,10.0,SSW,21.9,-,N/A,,Overcast,200,2014-01-22 15:28:00
6:58 AM,24.1,-9999,N/A,29.54,10.0,SSW,17.3,-,N/A,,Overcast,200,2014-01-22 15:58:00
7:58 AM,23.0,-9999,N/A,29.56,10.0,South,18.4,24.2,N/A,,Mostly Cloudy,190,2014-01-22 16:58:00
8:06 AM,23.0,-9999,N/A,29.57,10.0,South,19.6,24.2,N/A,,Scattered Clouds,190,2014-01-22 17:06:00
8:58 AM,21.0,21.0,100,29.59,9.0,South,18.4,-,0.00,Snow,Light Snow,190,2014-01-22 17:58:00
9:58 AM,21.0,19.9,96,29.60,10.0,South,16.1,-,0.00,,Clear,180,2014-01-22 18:58:00
10:58 AM,19.9,19.0,96,29.63,10.0,Variable,3.5,-,N/A,,Clear,0,2014-01-22 19:58:00
11:58 AM,19.0,19.0,100,29.64,10.0,South,12.7,-,N/A,,Clear,190,2014-01-22 20:58:00
12:58 PM,21.9,19.0,89,29.65,10.0,Calm,Calm,-,N/A,,Clear,0,2014-01-22 21:58:00
1:58 PM,18.0,16.0,92,29.65,10.0,Calm,Calm,-,N/A,,Clear,0,2014-01-22 22:58:00
2:58 PM,12.9,12.0,96,29.64,10.0,Calm,Calm,-,N/A,,Clear,0,2014-01-22 23:58:00
3:58 PM,12.0,10.9,95,29.65,10.0,ENE,15.0,-,N/A,,Clear,70,2014-01-23 00:58:00
4:58 PM,7.0,7.0,100,29.64,8.0,ENE,18.4,-,N/A,,Clear,60,2014-01-23 01:58:00
5:58 PM,1.9,1.9,100,29.63,10.0,NE,17.3,-,N/A,,Clear,40,2014-01-23 02:58:00
6:16 PM,5.0,5.0,100,29.63,1.8,NE,21.9,-,N/A,,Clear,50,2014-01-23 03:16:00
6:23 PM,6.8,5.0,92,29.62,1.2,NE,23.0,-,0.00,Snow,Light Snow,50,2014-01-23 03:23:00
6:27 PM,8.6,6.8,92,29.62,1.0,NE,23.0,-,0.00,Snow,Light Snow,50,2014-01-23 03:27:00
6:32 PM,6.8,6.8,100,29.62,0.8,NE,20.7,-,0.00,Snow,Light Snow,50,2014-01-23 03:32:00
6:58 PM,8.1,8.1,100,29.61,1.0,ENE,25.3,-,0.00,Snow,Light Snow,60,2014-01-23 03:58:00
7:15 PM,8.6,8.6,100,29.60,0.8,ENE,25.3,-,0.00,Snow,Light Snow,60,2014-01-23 04:15:00
7:44 PM,10.4,10.4,100,29.60,1.0,ENE,20.7,-,0.00,Snow,Light Snow,60,2014-01-23 04:44:00
7:55 PM,10.4,10.4,100,29.59,1.2,ENE,19.6,-,0.00,Snow,Light Snow,70,2014-01-23 04:55:00
7:58 PM,10.0,10.0,100,29.60,1.2,ENE,19.6,-,0.00,Snow,Light Snow,60,2014-01-23 04:58:00
8:07 PM,10.4,10.4,100,29.60,2.0,ENE,18.4,-,0.00,Snow,Light Snow,60,2014-01-23 05:07:00
8:11 PM,10.4,10.4,100,29.60,1.5,ENE,19.6,-,0.00,Snow,Light Snow,70,2014-01-23 05:11:00
8:22 PM,10.4,10.4,100,29.59,3.0,ENE,19.6,-,0.00,Snow,Light Snow,60,2014-01-23 05:22:00
8:36 PM,10.4,10.4,100,29.57,6.0,ENE,21.9,-,0.00,Snow,Light Snow,70,2014-01-23 05:36:00
8:41 PM,10.4,10.4,100,29.57,6.0,ENE,20.7,-,0.00,Snow,Light Snow,60,2014-01-23 05:41:00
8:58 PM,10.9,10.9,100,29.56,6.0,ENE,20.7,-,0.00,Snow,Light Snow,60,2014-01-23 05:58:00
9:58 PM,12.9,12.9,100,29.56,8.0,ENE,19.6,-,0.00,Snow,Light Snow,70,2014-01-23 06:58:00
10:58 PM,12.9,12.9,100,29.55,10.0,ENE,16.1,-,0.00,,Overcast,70,2014-01-23 07:58:00
11:29 PM,14.0,12.2,93,29.53,2.0,ENE,20.7,-,0.00,Snow,Light Snow,60,2014-01-23 08:29:00
11:33 PM,14.0,12.2,93,29.53,1.8,NE,19.6,-,0.00,Snow,Light Snow,50,2014-01-23 08:33:00
11:58 PM,14.0,-9999,N/A,29.52,1.8,NE,18.4,-,0.00,Snow,Light Snow,50,2014-01-23 08:58:00